Leadville, CO

5:11 PM MST on November 20, 2019 (GMT -0700)
Lake County

Weather History for KLXV - September, 2019

Change the Weather History Date:

Sunday, September 8, 2019

  Actual Average Record
Temperature  
Mean Temperature 50 °F -  
Max Temperature 64 °F 63 °F 74 °F (1988)
Min Temperature 35 °F 33 °F 25 °F (1985)
Degree Days  
Heating Degree Days 15 17  
Month to date heating degree days 74 128  
Since 1 July heating degree days 667 850  
Cooling Degree Days 0 0  
Month to date cooling degree days 0 0  
Year to date cooling degree days 0 0  
Moisture  
Dew Point 40 °F    
Average Humidity 65    
Maximum Humidity 93    
Minimum Humidity 37    
Precipitation  
Precipitation 0.14 in 0.04 in 0.38 in (2006)
Month to date precipitation 0.31 0.36  
Year to date precipitation 12.85 9.31  
Sea Level Pressure  
Sea Level Pressure 29.93 in    
Wind  
Wind Speed 6 mph (SE)    
Max Wind Speed 24 mph    
Max Gust Speed 35 mph    
Visibility 9 miles    
Events Rain , Thunderstorm    
T = Trace of Precipitation, MM = Missing Value Source: NWS Daily Summary

Daily Weather History Graph

Daily Weather History Graph

Search for Another Location

Airport or City:

Astronomy

Sep. 08, 2019 Rise Set
Actual Time 6:40 AM MDT 7:25 PM MDT
Civil Twilight 6:12 AM MDT 7:52 PM MDT
Nautical Twilight 5:40 AM MDT 8:24 PM MDT
Astronomical Twilight 5:07 AM MDT 8:57 PM MDT
Moon 4:34 PM MDT (9/8) 1:23 AM MDT (9/8)
Length of Visible Light 13h 39m
Length of Day
12h 45m
Waxing Gibbous, 75% of the Moon is Illuminated
Sep 8
Waxing Gibbous
Sep 13
Full
Sep 21
Last Quarter
Sep 28
New
Oct 5
First Quarter

Hourly Weather History & Observations

Time (MDT) Temp. Windchill Dew Point Humidity Pressure Visibility Wind Dir Wind Speed Gust Speed Precip Events Conditions
12:53 AM 41.0 °F - 35.1 °F 79% 29.94 in 10.0 mi Calm Calm - N/A   Clear
1:53 AM 39.0 °F 35.7 °F 34.0 °F 82% 29.92 in 10.0 mi ENE 4.6 mph - N/A   Clear
2:53 AM 39.9 °F - 34.0 °F 79% 29.91 in 10.0 mi Calm Calm - N/A   Clear
3:53 AM 41.0 °F 37.1 °F 35.1 °F 79% 29.88 in 10.0 mi East 5.8 mph - N/A   Clear
4:53 AM 39.9 °F - 35.1 °F 83% 29.88 in 10.0 mi Calm Calm - N/A   Clear
5:53 AM 36.0 °F - 33.1 °F 89% 29.91 in 10.0 mi Calm Calm - N/A   Clear
6:53 AM 37.0 °F 33.3 °F 33.1 °F 86% 29.92 in 10.0 mi ENE 4.6 mph - N/A   Clear
7:53 AM 44.1 °F - 37.9 °F 79% 29.92 in 10.0 mi Calm Calm - N/A   Clear
8:53 AM 51.1 °F - 39.0 °F 63% 29.89 in 10.0 mi Calm Calm - N/A   Clear
9:53 AM 53.1 °F - 39.0 °F 59% 29.88 in 10.0 mi SSW 6.9 mph - N/A   Clear
10:53 AM 55.9 °F - 39.0 °F 53% 29.84 in 10.0 mi South 9.2 mph - N/A   Mostly Cloudy
11:53 AM 64.0 °F - 37.0 °F 37% 29.78 in 10.0 mi SSE 10.4 mph 21.9 mph N/A   Scattered Clouds
12:53 PM 63.0 °F - 37.0 °F 38% 29.78 in 10.0 mi SSE 11.5 mph 27.6 mph 0.00 in   Mostly Cloudy
1:33 PM 55.0 °F - 45.0 °F 69% 30.24 in 2.5 mi SSE 6.9 mph 35.7 mph 0.01 in Rain Light Rain
1:40 PM 59.0 °F - 45.0 °F 60% 30.24 in 10.0 mi South 9.2 mph 18.4 mph 0.01 in   Mostly Cloudy
1:53 PM 61.0 °F - 41.0 °F 48% 29.78 in 10.0 mi Variable 6.9 mph 21.9 mph 0.01 in   Partly Cloudy
2:42 PM 60.8 °F - 39.2 °F 45% 30.22 in 10.0 mi South 21.9 mph 27.6 mph N/A Thunderstorm Mostly Cloudy
2:53 PM 57.9 °F - 39.9 °F 51% 29.81 in 10.0 mi South 18.4 mph 25.3 mph 0.00 in Rain , Thunderstorm Light Thunderstorms and Rain
3:08 PM 52.0 °F - 44.1 °F 74% 30.24 in 1.8 mi SSE 20.7 mph 31.1 mph 0.01 in Rain , Thunderstorm Thunderstorms and Rain
3:23 PM 50.0 °F - 45.0 °F 83% 30.25 in 2.0 mi South 11.5 mph 26.5 mph 0.03 in Rain , Thunderstorm Light Thunderstorms and Rain
3:26 PM 50.0 °F - 45.0 °F 83% 30.25 in 3.0 mi SSE 10.4 mph - 0.04 in Rain Light Rain
3:53 PM 48.9 °F - 44.1 °F 83% 29.88 in 10.0 mi SE 11.5 mph 19.6 mph 0.04 in   Overcast
4:53 PM 52.0 °F - 46.9 °F 83% 29.86 in 10.0 mi WNW 4.6 mph - 0.02 in Rain Light Rain
5:53 PM 54.0 °F - 42.1 °F 64% 29.82 in 10.0 mi ESE 3.5 mph - 0.01 in   Clear
6:53 PM 53.1 °F - 43.0 °F 69% 29.81 in 10.0 mi South 6.9 mph - N/A   Scattered Clouds
7:53 PM 48.9 °F - 44.1 °F 83% 29.79 in 10.0 mi Calm Calm - 0.00 in   Partly Cloudy
8:25 PM 48.0 °F - 46.0 °F 93% 30.20 in 3.0 mi North - - 0.05 in Rain Light Rain
8:53 PM 46.9 °F - 44.1 °F 90% 29.78 in 10.0 mi Variable 3.5 mph - 0.05 in   Partly Cloudy
9:53 PM 46.9 °F - 44.1 °F 90% 29.79 in 10.0 mi NNE 8.1 mph - 0.01 in   Overcast
10:53 PM 46.0 °F 41.0 °F 42.1 °F 86% 29.80 in 10.0 mi North 10.4 mph - N/A   Mostly Cloudy
11:53 PM 43.0 °F 40.3 °F 39.9 °F 89% 29.73 in 10.0 mi East 4.6 mph - 0.00 in   Mostly Cloudy